SCP
0 0 0 0 0 0 0 0 0 0 0 0 0 1 1 1 1 2 2 2 4 6 7 6 5 5 6 6 5 5 4 4 4 4 4 4 3 3 2 2 1 1 1 1
0 0 0 0 0 0 0 0 0 0 0 0 0 1 1 1 1 1 2 3 4 6 7 5 5 6 6 6 6 5 5 5 4 4 4 3 3 2 2 2 2 1 1 1
0 0 0 0 0 0 0 0 0 0 0 0 0 1 1 1 1 2 2 3 5 6 6 5 4 5 5 6 6 6 5 4 4 3 3 3 2 2 2 2 2 2 1 1
0 0 0 0 0 0 0 0 0 0 0 0 0 1 1 1 1 2 3 3 5 5 5 5 5 5 5 5 6 7 6 5 4 4 3 3 2 2 2 2 2 2 2 2
0 0 0 0 0 0 0 0 0 0 0 0 0 1 1 2 2 2 3 3 4 4 5 7 7 7 6 5 6 7 7 7 6 5 4 3 3 2 2 2 3 3 3 3
0 0 0 0 0 0 0 0 0 0 0 0 0 0 1 1 2 2 3 3 3 5 6 8 8 8 7 6 6 7 9 9 8 6 5 4 3 3 3 3 3 3 3 3
0 0 0 0 0 0 0 0 0 0 0 0 0 0 1 2 2 3 3 3 4 5 7 8 7 7 6 6 7 8 10 11 10 8 6 4 3 3 3 4 4 4 4 3
0 0 0 0 0 0 0 0 0 0 0 0 0 1 2 3 4 4 4 4 4 6 7 7 6 5 5 6 7 8 11 11 10 8 6 5 4 3 3 3 3 3 3 3
0 0 0 0 0 0 0 0 0 0 0 0 0 1 3 4 5 4 4 4 5 6 7 8 7 5 5 5 7 9 11 11 9 6 5 4 3 3 3 3 3 3 3 3
0 0 0 0 0 0 0 0 0 0 0 0 0 1 3 4 4 3 3 3 5 7 8 9 9 7 5 5 7 10 12 10 7 5 4 3 3 2 2 3 3 3 3 3
0 0 0 0 0 0 0 0 0 0 0 0 0 1 2 3 3 3 2 4 6 8 10 11 10 8 6 6 8 10 11 9 6 5 4 3 3 3 2 2 3 3 4 3
0 0 0 0 0 0 0 0 0 0 0 0 0 1 1 2 2 2 3 5 8 10 12 11 9 7 6 7 8 9 9 7 6 5 4 4 4 3 3 3 3 4 4 4
0 0 0 0 0 0 0 0 0 0 0 0 0 1 1 2 3 3 4 6 9 10 10 9 7 6 6 7 8 8 7 6 5 5 5 5 4 4 5 5 4 4 4 4
0 0 0 0 0 0 0 0 0 0 0 0 0 1 2 3 4 5 6 7 8 9 8 7 6 6 7 8 9 8 6 5 5 5 6 6 6 7 7 6 5 5 5 5
0 0 0 0 0 0 0 0 0 0 0 0 1 2 3 4 6 7 7 7 7 8 8 7 7 8 10 11 11 9 7 6 6 7 7 7 9 10 8 6 5 6 6 6
0 0 1 0 0 0 0 0 0 0 0 0 1 2 3 5 8 10 9 9 9 9 10 10 9 9 11 12 12 10 8 8 9 8 8 9 11 11 8 6 6 7 7 7
1 1 1 1 0 0 0 0 0 0 0 0 1 3 4 8 13 16 14 11 10 10 12 14 12 10 10 11 11 10 9 10 10 10 10 10 10 8 6 5 6 7 8 8
2 2 1 1 0 0 1 1 1 1 1 2 4 5 6 9 16 20 17 12 9 8 11 14 14 11 10 10 10 10 10 10 10 9 8 7 7 6 5 4 5 7 8 9
2 3 2 1 0 0 1 2 3 3 3 5 7 8 8 8 10 13 13 10 8 8 10 12 13 11 10 9 9 9 9 8 8 7 6 5 5 5 5 4 5 7 9 10
2 2 2 1 1 1 2 3 3 3 3 5 7 9 9 7 6 7 9 10 9 9 10 11 11 10 10 8 8 7 7 6 6 6 5 5 5 5 5 5 6 8 10 10
1 2 1 1 1 2 3 4 4 4 4 5 6 8 9 8 7 8 9 11 11 10 10 10 10 10 10 9 8 7 6 6 6 6 6 6 6 6 6 6 7 9 10 10
1 2 2 2 2 3 6 7 6 6 6 7 7 8 8 8 8 9 10 11 11 10 9 10 10 10 9 9 9 8 7 6 6 6 6 7 7 7 7 7 7 9 9 9
2 3 3 3 3 6 9 11 9 8 7 8 8 8 8 8 10 10 10 10 10 9 9 9 9 9 10 11 10 9 9 8 8 8 8 8 9 9 8 6 5 6 7 7
3 3 4 5 6 8 10 12 11 8 7 8 8 8 9 11 12 12 10 10 10 9 9 9 9 9 10 12 12 11 11 10 10 9 9 9 9 10 8 6 4 4 4 5
3 4 6 8 10 9 9 11 12 10 9 8 8 9 11 12 13 12 11 11 10 10 10 10 9 8 9 10 11 11 11 11 10 10 9 9 9 10 8 6 4 4 3 2
4 5 7 10 11 10 10 11 12 12 10 9 9 9 11 12 12 11 11 11 11 11 12 10 8 8 8 8 9 9 10 10 10 9 9 9 9 10 7 5 4 3 1 1
Wind_Speed
11 11 11 8 8 8 5 3 3 5 5 2 5 9 10 12 12 12 13 12 12 12 12 10 10 9 9 7 6 5 5 4 2 2 2 2 2 2 2 2 2 2 2 1
11 13 12 8 6 8 7 6 4 5 6 4 4 6 10 12 11 11 12 12 12 12 12 11 9 9 9 8 6 5 5 5 4 2 1 2 1 2 2 1 2 2 1 2
15 9 8 9 8 9 8 7 4 2 3 5 4 4 7 10 10 11 11 12 13 13 13 12 10 9 9 8 7 6 5 5 4 3 2 1 0 0 0 1 1 1 1 1
14 11 9 10 11 9 9 6 4 4 3 6 5 3 5 9 11 12 11 12 13 13 13 13 12 10 9 9 8 6 5 4 3 3 2 3 2 2 1 1 1 2 2 2
12 12 11 12 11 9 8 5 6 7 7 8 6 4 5 8 10 11 12 11 12 13 13 13 12 10 9 9 9 8 6 5 3 2 2 2 2 1 1 1 1 1 1 1
14 11 10 11 10 9 7 7 7 8 8 9 8 5 4 7 8 8 11 11 11 12 13 12 12 10 9 9 8 9 7 6 4 3 3 2 2 1 0 0 0 1 1 1
15 13 12 11 11 11 11 9 6 6 7 8 8 6 5 9 8 8 9 11 11 11 12 12 12 12 9 9 8 8 8 6 5 4 3 2 2 1 1 1 1 1 0 0
15 15 15 13 13 11 12 13 9 7 7 5 5 3 6 11 10 9 10 11 12 12 12 13 12 12 10 9 9 8 8 6 5 4 2 1 1 1 1 1 1 0 0 1
12 14 14 14 13 14 13 13 14 11 11 6 4 4 7 10 10 10 11 12 13 13 13 13 13 12 11 10 9 8 8 6 5 4 3 2 1 0 0 0 0 1 1 1
13 10 13 13 12 15 14 12 8 9 8 8 5 6 5 10 10 10 10 11 13 14 14 13 12 12 11 10 9 9 8 7 5 5 3 3 2 1 2 1 2 2 2 3
16 12 12 14 14 14 14 14 10 7 8 8 5 2 4 8 9 9 10 10 11 13 14 13 12 12 12 11 11 9 8 7 6 5 4 3 3 3 3 2 2 3 3 3
13 11 11 14 14 14 15 15 13 8 7 8 7 3 2 6 8 8 9 10 9 10 13 13 13 12 11 12 11 10 9 8 7 5 5 4 3 4 4 3 4 4 3 3
9 9 11 13 14 16 15 15 15 13 10 9 9 4 5 7 6 8 10 10 10 10 10 11 12 11 10 10 10 10 9 8 8 7 6 5 4 5 4 4 4 4 4 4
7 10 13 14 11 12 16 16 15 15 10 11 11 6 6 7 7 8 10 11 11 10 10 11 11 11 10 10 9 9 9 9 8 7 7 6 5 5 4 4 4 4 4 4
8 12 15 17 15 13 14 15 17 16 14 12 9 8 6 7 9 9 9 10 10 10 11 11 11 11 10 10 9 9 8 8 8 7 7 6 6 5 5 5 5 4 5 6
8 9 13 16 17 16 15 15 16 16 15 14 12 6 4 7 8 8 9 10 10 10 10 11 12 12 11 10 10 9 9 8 8 7 7 6 6 5 5 5 5 5 5 5
10 9 11 14 16 17 17 15 15 13 14 13 12 6 5 7 9 9 9 9 10 11 10 10 10 11 10 10 9 9 9 9 8 7 7 7 7 6 5 6 6 6 5 5
8 7 8 12 14 18 13 12 13 13 12 11 8 4 4 5 7 9 8 8 9 10 11 10 10 11 11 10 10 9 9 9 9 8 7 7 7 7 6 6 6 5 4 5
9 7 9 11 14 15 12 10 10 9 6 3 3 1 3 6 7 6 7 7 7 8 8 9 10 11 11 11 11 10 10 9 9 8 7 7 7 7 6 6 6 5 4 5
12 8 10 11 13 13 9 8 7 7 6 1 0 1 1 4 4 3 6 6 6 7 8 8 10 11 11 11 11 10 9 9 8 8 7 7 6 6 6 6 6 5 4 5
15 12 13 14 13 9 6 6 6 7 2 2 1 2 2 3 3 4 6 7 7 8 9 9 9 10 9 10 10 9 9 9 8 8 8 7 6 6 6 6 5 5 4 4
13 13 13 13 13 7 4 2 1 3 5 4 4 3 4 5 6 6 7 9 8 9 10 10 9 9 9 10 10 9 8 8 8 8 8 8 7 6 6 6 5 4 5 5
8 5 5 4 2 4 7 7 6 5 5 4 3 3 3 4 6 6 6 8 8 8 9 8 9 10 9 8 8 9 8 8 9 8 8 7 6 5 6 6 5 5 4 4
4 3 3 3 4 4 6 6 7 6 5 4 3 2 2 4 6 7 7 7 8 8 8 7 9 9 9 8 7 7 8 8 8 8 7 6 6 6 5 4 4 3 3 3
4 4 2 2 2 3 4 5 6 6 5 4 4 4 4 5 6 7 7 7 7 7 7 7 7 8 9 8 8 8 8 9 9 8 7 6 6 5 4 3 3 2 3 2
2 3 1 1 1 1 4 4 5 4 3 4 4 4 4 5 5 6 6 6 6 6 6 6 7 8 8 9 8 8 8 8 8 8 7 6 6 6 5 5 5 10 6 6
Wind_Direction
221 231 239 232 233 255 258 217 178 139 133 195 156 150 168 171 177 172 174 173 174 172 168 165 168 165 156 150 152 163 172 162 172 192 197 204 205 207 189 186 174 171 214 226
225 232 240 244 239 259 263 257 200 161 154 202 181 169 171 176 183 178 176 173 172 170 165 164 166 161 155 153 158 163 169 169 176 190 198 218 215 208 182 172 142 173 193 230
232 228 228 240 239 247 251 249 249 227 180 220 203 209 180 172 178 178 179 176 174 173 167 165 170 167 163 163 169 173 165 166 177 184 201 226 208 273 157 148 155 188 196 223
236 233 228 237 239 238 249 252 257 265 253 264 233 210 193 177 187 182 182 179 175 172 166 167 171 171 169 166 166 153 151 154 163 176 207 219 205 199 199 188 178 191 196 207
229 229 229 236 235 233 252 260 255 259 258 263 259 241 175 189 193 184 181 179 172 169 166 165 165 165 167 166 161 154 148 150 155 169 201 232 234 209 195 173 193 203 203 207
247 232 229 238 239 233 249 252 252 265 263 259 253 243 178 181 181 177 172 168 166 165 160 156 155 155 160 159 158 154 148 152 161 181 193 212 241 248 289 312 177 207 195 170
235 232 224 233 234 224 230 236 234 237 238 244 243 236 149 151 155 165 166 159 161 159 154 154 155 156 159 160 156 150 148 152 160 168 181 192 220 215 220 264 246 236 258 136
220 222 216 216 229 230 226 235 239 247 251 251 242 224 138 135 137 141 143 157 158 158 157 157 157 155 159 157 151 148 147 149 152 151 156 175 220 208 211 227 247 128 54 42
226 228 209 209 220 236 232 235 249 258 269 264 241 200 145 136 139 142 148 156 156 157 158 157 156 157 157 155 151 147 141 144 150 152 148 148 149 171 332 45 71 39 32 59
251 243 217 205 211 230 246 246 250 256 271 271 240 237 190 153 157 156 154 156 154 156 156 154 158 157 154 153 146 140 142 143 143 148 157 150 140 115 89 68 73 64 51 57
243 250 228 209 209 220 224 239 247 262 266 269 265 258 138 151 161 161 157 153 154 156 151 156 157 154 151 149 146 144 143 143 143 138 129 111 114 111 108 104 86 77 65 67
233 247 240 224 215 224 230 232 231 237 255 272 273 251 120 144 152 152 147 143 147 147 149 155 150 146 150 149 149 149 149 148 144 137 127 115 103 95 90 83 79 77 72 71
231 247 243 230 220 214 230 235 238 236 237 247 257 224 156 146 146 142 139 142 142 141 141 145 145 145 152 148 146 149 150 147 143 137 131 125 113 102 94 88 82 76 72 67
244 244 249 242 229 216 217 228 236 241 240 243 243 217 176 163 150 139 143 147 146 144 145 150 147 148 151 146 145 148 147 146 145 142 139 127 116 114 109 98 86 78 78 73
240 240 249 262 262 246 227 222 228 236 246 252 250 229 185 156 148 146 146 146 149 151 155 154 151 149 148 146 147 147 146 142 140 139 135 129 123 118 109 98 88 79 81 83
226 254 251 256 259 253 247 233 230 231 237 245 248 244 158 144 142 139 146 155 156 158 161 157 155 151 152 152 152 149 147 142 140 139 137 130 127 121 115 111 103 91 82 79
214 233 248 249 249 254 246 240 233 232 234 242 244 228 184 154 147 149 150 159 159 162 167 162 158 154 155 155 151 152 147 143 141 140 139 138 135 127 123 113 101 96 94 88
229 232 240 249 249 246 248 251 249 241 235 235 240 203 164 140 136 137 147 158 162 164 168 162 160 156 155 153 151 150 148 146 143 142 140 138 134 127 121 114 110 106 102 94
220 223 237 244 244 244 244 245 245 240 235 262 254 165 133 130 134 138 140 151 156 158 156 157 159 155 155 156 153 150 148 146 144 144 140 136 132 130 129 123 119 116 112 108
213 210 233 240 245 242 242 245 239 240 209 242 312 53 117 129 162 140 130 133 139 141 143 149 150 146 149 151 149 150 151 149 150 146 140 133 135 139 137 133 129 125 122 120
203 205 224 239 243 247 278 265 236 229 189 36 42 59 78 98 87 109 124 122 130 133 137 141 143 141 143 145 147 153 151 151 148 141 138 135 138 138 137 134 133 138 134 122
208 204 213 231 240 232 331 270 254 56 51 50 46 57 86 99 102 112 119 124 133 137 139 141 138 136 139 144 148 151 150 145 141 139 141 140 145 148 142 139 140 141 138 138
225 218 207 220 209 63 37 55 63 62 55 51 39 47 102 113 117 121 122 126 131 133 136 140 140 138 141 146 149 152 145 143 144 144 144 145 148 140 143 149 151 155 166 168
231 253 191 156 129 90 61 57 51 38 39 42 49 45 106 119 122 128 132 132 133 133 133 135 142 146 146 148 148 145 140 142 147 147 146 148 149 146 144 151 161 164 177 178
284 273 215 145 124 98 65 45 42 29 22 35 44 62 75 98 113 121 127 132 135 135 136 141 147 149 150 149 147 148 146 148 151 152 153 155 155 150 132 109 59 86 60 43
300 300 279 154 150 105 98 61 45 30 18 34 49 58 70 88 105 117 128 130 130 133 136 142 149 152 153 152 151 152 154 158 157 160 165 168 164 157 151 137 102 51 64 75